OpenBCM V1.07b12 (Linux)

Packet Radio Mailbox

SR8BBS

[OBCM_Lublin]

 Login: GUEST





  
I0OJJ  > KEPS     19.06.25 07:46z 343 Lines 16342 Bytes #2 (0) @ AMSAT
BID : ORB25170.1
Subj: 2Line Orbital Elements 25170.AMSAT
Path: SR8BBS<SR1BSZ<EA2RCF<I0OJJ
Sent: 250619/0025z @:I0OJJ.ITA.EU [Rome] obcm1.08-10-g596e
From: I0OJJ @ I0OJJ.ITA.EU (Gustavo)
To:   KEPS @ AMSAT
X-Info: This message was generated automatically


QST de W1STR

AMSAT Orbital Elements for Amateur Satellites in TLE Format
From Orbital Analysis Office
New England Sci-Tech STEM Education Center
Natick, MA June 19, 2025
To all radio amateurs


These element sets describe the orbits of various satellites 
in use by the amateur radio community. For details see:
www.amsat.org/keplerian-elements-formats/

A daily update of element sets is available at:
www.amsat.org/tle/daily-bulletin.txt
or without bulletin text:
www.amsat.org/tle/dailytle.txt


AO-07
1 07530U 74089B   25169.25308042 -.00000042  00000-0  29511-4 0  9999
2 07530 101.9926 173.6093 0012624 105.2254 266.7126 12.53689657314918
UO-11
1 14781U 84021B   25169.46915041  .00001167  00000-0  12852-3 0  9995
2 14781  97.7546 135.6617 0006664 316.1039  43.9649 14.89412963202966
AO-27
1 22825U 93061C   25169.44863637  .00000085  00000-0  49686-4 0  9992
2 22825  98.7361 231.0483 0009568  87.9982 272.2296 14.30802461654988
FO-29
1 24278U 96046B   25169.40234089 -.00000034  00000-0  45022-5 0  9997
2 24278  98.5751  62.1330 0349228 319.9070  37.6764 13.53249368423963
NOAA-15
1 25338U 98030A   25169.85667316  .00000201  00000-0  10042-3 0  9999
2 25338  98.5342 194.7643 0009661 339.0125  21.0658 14.26984732409723
GO-32
1 25397U 98043D   25169.47293499  .00000062  00000-0  47005-4 0  9998
2 25397  98.9705 148.7777 0001587 141.2562 218.8730 14.24317308399552
ISS
1 25544U 98067A   25169.83421446  .00009649  00000-0  17509-3 0  9998
2 25544  51.6383 298.9072 0001027 253.9760 239.4110 15.50282280515416
NO-44
1 26931U 01043C   25169.51752066  .00000151  00000-0  87623-4 0  9991
2 26931  67.0505 104.7317 0006081 276.2915  83.7494 14.31738976238384
SO-50
1 27607U 02058C   25169.73221894  .00001092  00000-0  15325-3 0  9997
2 27607  64.5510 172.2838 0057415 331.9924  27.8094 14.81646866210798
CO-55
1 27844U 03031E   25169.46285650  .00000289  00000-0  14502-3 0  9995
2 27844  98.6752 177.6215 0010122 155.0095 205.1576 14.24003213139902
CO-57
1 27848U 03031J   25169.27481770  .00000240  00000-0  12506-3 0  9998
2 27848  98.6781 177.4349 0009634 172.2218 187.9111 14.23336789139603
RS-22
1 27939U 03042A   25169.85908830  .00000910  00000-0  15205-3 0  9999
2 27939  98.3288 339.5349 0011043 347.2294 149.7997 14.72375588162191
CO-58
1 28895U 05043F   25169.63290618  .00001300  00000-0  22000-3 0  9993
2 28895  98.2510 314.0965 0013197 278.7887  81.1825 14.71042311 48275
CO-65
1 32785U 08021C   25169.58405767  .00003774  00000-0  27369-3 0  9992
2 32785  97.7862 140.8139 0009951 170.5412 189.6002 15.04513378930438
CO-66
1 32791U 08021J   25169.59785208  .00009057  00000-0  43713-3 0  9992
2 32791  97.7278 149.8403 0005497 122.3647 237.8119 15.18902481931860
RS-30
1 32953U 08025A   25169.81805176  .00000018  00000-0  55896-4 0  9992
2 32953  82.5022 221.4328 0019688  29.5791 330.6398 12.43165369774684
NOAA-19
1 33591U 09005A   25169.83148861  .00000171  00000-0  11540-3 0  9990
2 33591  98.9969 234.5877 0013245 342.1359  17.9345 14.13378825843412
SRMSAT
1 37841U 11058D   25169.52479517  .00000401  00000-0  74186-4 0  9996
2 37841  19.9716 100.4152 0011884 162.8165   2.5674 14.11439045706371
ZACUBE-1
1 39417U 13066B   25169.34429829  .00004340  00000-0  37741-3 0  9990
2 39417  97.7796 126.3102 0044615  24.7783 335.5567 14.96729316626227
Delfi-N3xt
1 39428U 13066N   25169.50225274  .00005854  00000-0  59586-3 0  9990
2 39428  97.8342  87.0530 0083887 332.3559  27.3209 14.88511132620407
GOMX-1
1 39430U 13066Q   25169.82638899  .00001676  00000-0  26576-3 0  9990
2 39430  97.6828  27.9234 0132783 162.2317 198.3598 14.67670625616767
LO-74
1 39440U 13066AA  25169.54238658  .00002675  00000-0  27334-3 0  9992
2 39440  97.8497 114.0405 0062705 149.1595 211.3330 14.89986260622775
AO-73
1 39444U 13066AE  25169.60477652  .00005450  00000-0  40788-3 0  9994
2 39444  97.7827 131.5553 0042053 359.5570   0.5610 15.02455967624948
DTUSAT-2
1 40030U 14033W   25169.44611629  .00005104  00000-0  33251-3 0  9991
2 40030  98.0559 141.6936 0010293  40.0730 320.1254 15.08371850597730
EO-80
1 40032U 14033Y   25169.66491112  .00005875  00000-0  38128-3 0  9993
2 40032  98.0439 141.5650 0007898 341.2374  18.8560 15.08458841598264
LILACSAT-2
1 40908U 15049K   25169.84221661  .00009913  00000-0  25748-3 0  9994
2 40908  97.5054 190.4123 0010924 122.6292 237.6009 15.39110564539653
IO-86
1 40931U 15052B   25151.18580175  .00001241  00000-0  78118-4 0  9996
2 40931   6.0006  24.0987 0012733 338.8432  21.1169 14.78805930523047
Horyu-4
1 41340U 16012D   25169.43868889  .00019690  00000-0  51906-3 0  9998
2 41340  30.9968  72.3468 0005741 155.9072 204.1843 15.37241656514153
Lapan A3
1 41603U 16040E   25169.85370828  .00003142  00000-0  11087-3 0  9999
2 41603  97.1367 174.0972 0009464 229.7971 130.2443 15.29918358499201
CAS-2T
1 41847U 16066G   25169.48563910  .00001596  00000-0  23402-3 0  9997
2 41847  98.4193 243.8709 0346800 151.4050 210.6656 14.43510741452300
CAS-4B
1 42759U 17034B   25169.72808871  .00073623  00000-0  73206-3 0  9998
2 42759  43.0063 267.3098 0020806 350.6490   9.3985 15.64529558444032
CAS-4A
1 42761U 17034D   25169.68972501  .00063796  00000-0  60193-3 0  9999
2 42761  43.0100 264.5921 0021975 355.0231   5.0414 15.65856006444055
TechnoSat
1 42829U 17042E   25169.43917713  .00001765  00000-0  13972-3 0  9991
2 42829  97.3877 337.7300 0014384 242.4263 117.5502 15.01751266432053
AO-91
1 43017U 17073E   25169.57045639  .00006753  00000-0  34400-3 0  9990
2 43017  97.5257  40.1152 0173624 135.5668 225.9640 15.04857329410560
S-Net D
1 43186U 18014G   25169.69855916  .00003570  00000-0  21210-3 0  9992
2 43186  97.5615  72.5121 0008807 182.6214 177.4972 15.11906819403759
S-Net B
1 43187U 18014H   25169.30696683  .00003313  00000-0  19724-3 0  9997
2 43187  97.5624  72.0967 0009587 179.9376 180.1857 15.11884302403695
S-Net A
1 43188U 18014J   25169.23562847  .00003306  00000-0  19669-3 0  9994
2 43188  97.5629  72.1774 0009453 180.8783 179.2432 15.11908038403683
S-Net C
1 43189U 18014K   25169.44175573  .00003282  00000-0  19536-3 0  9990
2 43189  97.5648  72.3972 0011216 174.1039 186.0326 15.11880744402261
Ten-Koh
1 43677U 18084G   25169.46445339  .00001816  00000-0  14888-3 0  9997
2 43677  98.0865 342.0725 0005997 222.1795 137.8967 15.00613713361576
PO-101
1 43678U 18084H   25169.80438030  .00001236  00000-0  10903-3 0  9996
2 43678  98.1033 346.2816 0007471 257.4074 102.6312 14.98368058361762
QO-100
1 43700U 18090A   25169.58025586  .00000155  00000-0  00000-0 0  9995
2 43700   0.0190  15.3129 0002248 109.1515  17.2777  1.00271356 24030
MinXSS-2
1 43758U 18099A   25169.44567808  .00012428  00000-0  48501-3 0  9997
2 43758  97.5012 235.5103 0013237 123.0068 237.2444 15.25977793358320
AO-95
1 43770U 18099N   25169.68364459  .00007180  00000-0  36219-3 0  9996
2 43770  97.4907 227.6686 0011087 172.0617 188.0794 15.17383120357932
RANGE-A
1 43773U 18099R   25169.61816008  .00004364  00000-0  27825-3 0  9998
2 43773  97.4472 217.7578 0012079 154.5637 205.6189 15.09165556357588
MOVE-II
1 43780U 18099Y   25169.46412017  .00320087  00000-0  15274-2 0  9998
2 43780  97.4637 245.8147 0005597 205.9166 154.1823 15.81968727359203
SNUSat 2
1 43782U 18099AA  25169.65710451  .00005757  00000-0  31342-3 0  9993
2 43782  97.4587 224.3200 0013610 120.0878 240.1705 15.14737932357877
SnugLite
1 43784U 18099AC  25169.38226779  .00007385  00000-0  36928-3 0  9994
2 43784  97.4399 223.6285 0005107 117.9440 242.2311 15.17715573357974
ITASat 1
1 43786U 18099AE  25169.67266205  .00004925  00000-0  28161-3 0  9993
2 43786  97.4558 223.8187 0014809 168.6355 191.5213 15.13037456357838
EAGLET 1
1 43790U 18099AJ  25169.56821081  .00004024  00000-0  25714-3 0  9996
2 43790  97.4753 223.6438 0012857 152.9563 207.2338 15.09123672357424
ESEO
1 43792U 18099AL  25169.85779951  .00001423  00000-0  11082-3 0  9991
2 43792  97.4486 217.0662 0014853 125.9929 234.2676 15.02657510357217
CSIM
1 43793U 18099AM  25169.46534123  .00075319  00000-0  44728-3 0  9997
2 43793  97.4789 248.0583 0005363 168.1074 192.0320 15.77782323359049
JO-97
1 43803U 18099AX  25169.40052505  .00009048  00000-0  41035-3 0  9996
2 43803  97.4652 228.3984 0009146 112.8731 247.3471 15.21019296358114
Suomi 100
1 43804U 18099AY  25169.42920849  .00007899  00000-0  38464-3 0  9998
2 43804  97.4718 227.6980 0013982 115.5872 244.6809 15.18550113358046
ISAT
1 43879U 18111D   25169.32368158  .00015635  00000-0  53648-3 0  9991
2 43879  97.5948  83.9108 0009537 154.4832 205.6881 15.30205536355031
UWE-4
1 43880U 18111E   25169.26143327  .00011543  00000-0  44899-3 0  9997
2 43880  97.5893  82.2653 0012130 170.4159 189.7313 15.26125226354956
Sparrow
1 43881U 18111F   25169.29856831  .00016712  00000-0  55178-3 0  9997
2 43881  97.6095  86.7965 0006294 188.2850 171.8287 15.31461404355125
Prox-1
1 44339U 19036A   25169.24778831  .00009187  00000-0  11496-2 0  9993
2 44339  23.9982   4.8523 0006867 171.3536 188.7080 14.80126105319309
SONATE
1 44400U 19038Q   25169.59502832  .00440526  87705-4  78593-3 0  9997
2 44400  97.6790 197.9303 0008717 191.8464 168.2610 16.01723381331014
Taurus 1
1 44530U 19059C   25169.80462810  .00004685  00000-0  86484-3 0  9998
2 44530  98.6080 309.6362 0008935  16.0638 344.0846 14.65948014305297
Duchifat 3
1 44854U 19089C   25169.72501518  .00038102  00000-0  72424-3 0  9990
2 44854  36.9431 297.0182 0003858  20.8981 339.1933 15.47310159304367
TO-108
1 44881U 19093C   25169.85472978  .00000805  00000-0  99036-4 0  9994
2 44881  97.7923 245.3106 0013393 195.3078 164.7734 14.85619236297451
